TRA5B EHAM-LGSM

Flight info

Callsign TRA5B
Flight time 2h 55m
Altitude 35000
Route EDUPO Z739 MISGO DCT TIVUN/N0456F370 DCT ESAMA DCT OSBIT DCT TENLO DCT LAMSI DCT ZINPE DCT VEBAR DCT TORTO/N0452F390 DCT VABEK UL603 OLOTA DCT RUGAS DCT GIKAS/N0459F310 UL608 MES L609 URNIL
Aircraft B738/M-SDE2E3FGHIRWXY/LB1

Departure

Time 2026-05-05 08:35
Airport Amsterdam Airport Schiphol (EHAM)

Arrival

Time 2026-05-05 11:30
Airport Samos Airport (LGSM)
Time Latitude Longitude Altitude Speed Heading
2026-05-05 08:14 52.30543 4.76811 -2 ft 0 kts 294°
2026-05-05 08:25 52.30540 4.76822 -2 ft 4 kts 293°
2026-05-05 08:26 52.30530 4.76862 -2 ft 4 kts 290°
2026-05-05 08:26 52.30522 4.76904 -2 ft 4 kts 280°
2026-05-05 08:26 52.30522 4.76943 -2 ft 4 kts 234°
2026-05-05 08:26 52.30523 4.76952 -2 ft 1 kts 148°
2026-05-05 08:27 52.30524 4.76952 -2 ft 1 kts 148°
2026-05-05 08:29 52.30515 4.76961 -2 ft 4 kts 148°
2026-05-05 08:29 52.30465 4.77012 -2 ft 12 kts 148°
2026-05-05 08:30 52.30511 4.77340 -2 ft 22 kts 58°
2026-05-05 08:30 52.30603 4.77551 -2 ft 23 kts 38°
2026-05-05 08:30 52.30755 4.77597 -2 ft 22 kts
2026-05-05 08:30 52.30909 4.77612 -2 ft 22 kts
2026-05-05 08:31 52.31058 4.77625 -2 ft 21 kts
2026-05-05 08:31 52.31204 4.77638 -2 ft 21 kts
2026-05-05 08:31 52.31343 4.77651 -2 ft 20 kts
2026-05-05 08:31 52.31478 4.77609 -2 ft 23 kts 324°
2026-05-05 08:32 52.31575 4.77367 -2 ft 29 kts 274°
2026-05-05 08:32 52.31566 4.76994 -2 ft 34 kts 267°
2026-05-05 08:32 52.31552 4.76608 -2 ft 33 kts 266°
2026-05-05 08:32 52.31539 4.76245 -2 ft 31 kts 266°
2026-05-05 08:33 52.31528 4.75906 -2 ft 29 kts 267°
2026-05-05 08:33 52.31516 4.75585 -2 ft 27 kts 266°
2026-05-05 08:33 52.31506 4.75285 -2 ft 26 kts 266°
2026-05-05 08:33 52.31496 4.75006 -2 ft 24 kts 267°
2026-05-05 08:34 52.31488 4.74750 -2 ft 19 kts 272°
2026-05-05 08:34 52.31589 4.74658 -2 ft 18 kts 355°
2026-05-05 08:34 52.31668 4.74783 -2 ft 21 kts 88°
2026-05-05 08:34 52.31684 4.75250 -3 ft 75 kts 86°
2026-05-05 08:35 52.31708 4.75990 -3 ft 119 kts 87°
2026-05-05 08:35 52.31765 4.77660 51 ft 169 kts 85°
2026-05-05 08:35 52.31829 4.79602 816 ft 171 kts 83°
2026-05-05 08:35 52.31900 4.81543 1770 ft 170 kts 83°
2026-05-05 08:36 52.31965 4.83564 2339 ft 187 kts 84°
2026-05-05 08:36 52.32025 4.85755 2801 ft 202 kts 89°
2026-05-05 08:36 52.31732 4.88159 2952 ft 232 kts 109°
2026-05-05 08:36 52.31035 4.90702 3219 ft 255 kts 112°
2026-05-05 08:37 52.30305 4.93401 3845 ft 264 kts 112°
2026-05-05 08:37 52.29566 4.96193 4645 ft 269 kts 111°
2026-05-05 08:37 52.28984 4.99085 5460 ft 271 kts 105°
2026-05-05 08:37 52.28484 5.02063 6294 ft 274 kts 105°
2026-05-05 08:38 52.27979 5.05098 7032 ft 278 kts 105°
2026-05-05 08:38 52.27462 5.08167 7778 ft 282 kts 105°
2026-05-05 08:38 52.26935 5.11250 8511 ft 286 kts 105°
2026-05-05 08:38 52.26389 5.14413 9262 ft 290 kts 105°
2026-05-05 08:39 52.25831 5.17613 10018 ft 293 kts 106°
2026-05-05 08:39 52.25262 5.20852 10426 ft 309 kts 106°
2026-05-05 08:39 52.24640 5.24372 10607 ft 332 kts 107°
2026-05-05 08:39 52.23614 5.27866 10751 ft 353 kts 124°
2026-05-05 08:40 52.22159 5.31178 11079 ft 367 kts 126°
2026-05-05 08:40 52.20634 5.34571 11615 ft 374 kts 126°
2026-05-05 08:40 52.19167 5.37855 12247 ft 377 kts 126°
2026-05-05 08:40 52.17626 5.41342 12949 ft 380 kts 126°
2026-05-05 08:41 52.16063 5.44907 13596 ft 386 kts 125°
2026-05-05 08:41 52.14514 5.48457 14239 ft 389 kts 125°
2026-05-05 08:41 52.12934 5.52076 14925 ft 392 kts 126°
2026-05-05 08:41 52.11335 5.55733 15578 ft 396 kts 126°
2026-05-05 08:42 52.09744 5.59366 16207 ft 400 kts 126°
2026-05-05 08:42 52.08105 5.63101 16866 ft 403 kts 126°
2026-05-05 08:42 52.06479 5.66800 17516 ft 406 kts 126°
2026-05-05 08:42 52.04749 5.70431 18138 ft 410 kts 131°
2026-05-05 08:43 52.02858 5.73933 18696 ft 412 kts 133°
2026-05-05 08:43 52.00941 5.77403 19225 ft 416 kts 133°
2026-05-05 08:43 51.98993 5.80985 19735 ft 420 kts 133°
2026-05-05 08:43 51.97085 5.84539 20253 ft 424 kts 133°
2026-05-05 08:44 51.95136 5.88178 20758 ft 427 kts 133°
2026-05-05 08:44 51.93179 5.91825 21264 ft 430 kts 133°
2026-05-05 08:44 51.91204 5.95500 21738 ft 434 kts 133°
2026-05-05 08:44 51.89207 5.99212 22225 ft 437 kts 133°
2026-05-05 08:45 51.87209 6.02917 22697 ft 440 kts 133°
2026-05-05 08:45 51.85208 6.06620 23132 ft 444 kts 133°
2026-05-05 08:45 51.83151 6.10397 23551 ft 448 kts 133°
2026-05-05 08:45 51.81065 6.14210 23932 ft 450 kts 134°
2026-05-05 08:46 51.79009 6.17963 24330 ft 452 kts 134°
2026-05-05 08:46 51.76915 6.21784 24726 ft 454 kts 134°
2026-05-05 08:46 51.74794 6.25655 25095 ft 457 kts 134°
2026-05-05 08:46 51.72702 6.29474 25457 ft 459 kts 134°
2026-05-05 08:47 51.70570 6.33363 25818 ft 462 kts 134°
2026-05-05 08:47 51.68431 6.37262 26173 ft 464 kts 134°
2026-05-05 08:47 51.66313 6.41116 26518 ft 466 kts 134°
2026-05-05 08:47 51.64159 6.45025 26867 ft 468 kts 135°
2026-05-05 08:48 51.61968 6.48995 27205 ft 469 kts 135°
2026-05-05 08:48 51.59795 6.52925 27530 ft 471 kts 135°
2026-05-05 08:48 51.57613 6.56865 27841 ft 474 kts 135°
2026-05-05 08:48 51.55436 6.60793 28142 ft 475 kts 135°
2026-05-05 08:49 51.53236 6.64758 28442 ft 477 kts 135°
2026-05-05 08:49 51.51022 6.68743 28813 ft 477 kts 135°
2026-05-05 08:49 51.48818 6.72705 29292 ft 475 kts 136°
2026-05-05 08:49 51.46634 6.76626 29800 ft 472 kts 136°
2026-05-05 08:50 51.44438 6.80561 30198 ft 471 kts 136°
2026-05-05 08:50 51.42241 6.84489 30540 ft 470 kts 136°
2026-05-05 08:50 51.40090 6.88433 30891 ft 471 kts 133°
2026-05-05 08:50 51.38177 6.92635 31278 ft 472 kts 129°
2026-05-05 08:51 51.36335 6.96978 31692 ft 471 kts 129°
2026-05-05 08:51 51.34525 7.01333 32065 ft 470 kts 129°
2026-05-05 08:51 51.32696 7.05730 32401 ft 469 kts 129°
2026-05-05 08:51 51.30877 7.10061 32744 ft 468 kts 129°
2026-05-05 08:52 51.29052 7.14363 33101 ft 467 kts 130°
2026-05-05 08:52 51.27228 7.18628 33422 ft 466 kts 130°
2026-05-05 08:52 51.25409 7.22858 33708 ft 466 kts 130°
2026-05-05 08:52 51.23564 7.27130 33981 ft 466 kts 130°
2026-05-05 08:53 51.21716 7.31403 34234 ft 466 kts 130°
2026-05-05 08:53 51.19887 7.35626 34469 ft 466 kts 130°
2026-05-05 08:53 51.18046 7.39873 34707 ft 466 kts 130°
2026-05-05 08:53 51.16216 7.44085 34883 ft 467 kts 130°
2026-05-05 08:54 51.14336 7.48407 34868 ft 470 kts 130°
2026-05-05 08:54 51.10617 7.56941 34883 ft 468 kts 129°
2026-05-05 08:55 51.06913 7.65418 34860 ft 465 kts 130°
2026-05-05 08:55 51.03247 7.73775 34864 ft 463 kts 130°
2026-05-05 08:56 50.99552 7.82170 34874 ft 461 kts 130°
2026-05-05 08:56 50.95874 7.90506 34890 ft 461 kts 130°
2026-05-05 08:57 50.92113 7.98712 34875 ft 458 kts 136°
2026-05-05 08:57 50.87627 8.05744 34902 ft 455 kts 142°
2026-05-05 08:58 50.83060 8.12556 34906 ft 456 kts 142°
2026-05-05 08:58 50.78468 8.19464 34907 ft 457 kts 142°
2026-05-05 08:59 50.73887 8.26405 34901 ft 457 kts 142°
2026-05-05 08:59 50.69297 8.33359 34900 ft 456 kts 142°
2026-05-05 09:00 50.65545 8.39028 34885 ft 455 kts 142°
2026-05-05 09:00 50.60993 8.45884 34869 ft 454 kts 142°
2026-05-05 09:01 50.56452 8.52703 34862 ft 453 kts 142°
2026-05-05 09:01 50.51900 8.59520 34858 ft 452 kts 142°
2026-05-05 09:02 50.47334 8.66339 34863 ft 451 kts 142°
2026-05-05 09:02 50.42796 8.73098 34863 ft 450 kts 142°
2026-05-05 09:03 50.38250 8.79851 34863 ft 450 kts 142°
2026-05-05 09:03 50.34014 8.87076 34866 ft 458 kts 130°
2026-05-05 09:04 50.31029 8.96072 34870 ft 467 kts 119°
2026-05-05 09:04 50.28430 9.05351 34862 ft 467 kts 119°
2026-05-05 09:05 50.25802 9.14592 34865 ft 467 kts 119°
2026-05-05 09:05 50.23101 9.23882 34862 ft 468 kts 120°
2026-05-05 09:06 50.20394 9.33105 34863 ft 469 kts 120°
2026-05-05 09:06 50.17675 9.42341 34866 ft 469 kts 120°
2026-05-05 09:07 50.14950 9.51568 34865 ft 470 kts 120°
2026-05-05 09:07 50.12208 9.60818 34866 ft 469 kts 120°
2026-05-05 09:08 50.09466 9.70040 34867 ft 470 kts 120°
2026-05-05 09:08 50.06670 9.79215 34854 ft 467 kts 124°
2026-05-05 09:09 50.03202 9.87671 34856 ft 463 kts 129°
2026-05-05 09:09 49.99582 9.95981 34856 ft 463 kts 129°
2026-05-05 09:10 49.96023 10.04226 34862 ft 463 kts 128°
2026-05-05 09:10 49.92452 10.12581 34862 ft 463 kts 128°
2026-05-05 09:11 49.88894 10.20912 34857 ft 463 kts 128°
2026-05-05 09:11 49.85329 10.29233 34856 ft 463 kts 128°
2026-05-05 09:12 49.81775 10.37500 34851 ft 463 kts 128°
2026-05-05 09:12 49.78185 10.45823 34859 ft 463 kts 128°
2026-05-05 09:13 49.74609 10.54086 34850 ft 463 kts 128°
2026-05-05 09:13 49.71036 10.62317 34852 ft 463 kts 129°
2026-05-05 09:14 49.67427 10.70607 34847 ft 463 kts 129°
2026-05-05 09:14 49.63845 10.78808 34845 ft 462 kts 129°
2026-05-05 09:15 49.60250 10.87015 34841 ft 462 kts 129°
2026-05-05 09:15 49.56648 10.95215 34855 ft 461 kts 129°
2026-05-05 09:16 49.53037 11.03414 34857 ft 461 kts 128°
2026-05-05 09:16 49.49910 11.12073 34858 ft 465 kts 121°
2026-05-05 09:17 49.47066 11.20962 34852 ft 466 kts 120°
2026-05-05 09:17 49.44204 11.29861 34854 ft 465 kts 121°
2026-05-05 09:18 49.41294 11.38729 34850 ft 465 kts 121°
2026-05-05 09:18 49.38340 11.47625 34843 ft 466 kts 121°
2026-05-05 09:19 49.35407 11.56418 34844 ft 466 kts 121°
2026-05-05 09:19 49.32451 11.65255 34847 ft 466 kts 121°
2026-05-05 09:20 49.29476 11.74121 34846 ft 466 kts 121°
2026-05-05 09:20 49.26511 11.82927 34850 ft 466 kts 121°
2026-05-05 09:21 49.23543 11.91712 34854 ft 466 kts 121°
2026-05-05 09:21 49.20553 12.00529 34844 ft 466 kts 121°
2026-05-05 09:22 49.17562 12.09321 34843 ft 466 kts 121°
2026-05-05 09:22 49.14552 12.18137 34836 ft 466 kts 121°
2026-05-05 09:23 49.11552 12.26896 34827 ft 465 kts 121°
2026-05-05 09:23 49.08565 12.35587 34826 ft 464 kts 121°
2026-05-05 09:24 49.05559 12.44302 34823 ft 464 kts 121°
2026-05-05 09:24 49.02554 12.52986 34817 ft 464 kts 121°
2026-05-05 09:25 48.99546 12.61649 34825 ft 464 kts 121°
2026-05-05 09:25 48.96515 12.70348 34828 ft 464 kts 121°
2026-05-05 09:26 48.93475 12.79045 34827 ft 465 kts 121°
2026-05-05 09:26 48.90442 12.87692 34830 ft 466 kts 121°
2026-05-05 09:27 48.87888 12.94950 34832 ft 466 kts 121°
2026-05-05 09:27 48.84812 13.03667 34825 ft 467 kts 121°
2026-05-05 09:28 48.81757 13.12296 34826 ft 468 kts 121°
2026-05-05 09:28 48.78661 13.21012 34834 ft 468 kts 121°
2026-05-05 09:29 48.75568 13.29688 34830 ft 468 kts 121°
2026-05-05 09:29 48.72480 13.38326 34834 ft 467 kts 121°
2026-05-05 09:30 48.69366 13.47007 34835 ft 468 kts 121°
2026-05-05 09:30 48.66218 13.55595 34825 ft 465 kts 126°
2026-05-05 09:31 48.62032 13.62868 34852 ft 457 kts 142°
2026-05-05 09:31 48.57228 13.69100 34845 ft 457 kts 143°
2026-05-05 09:32 48.52400 13.75321 34835 ft 457 kts 142°
2026-05-05 09:32 48.47591 13.81576 34832 ft 458 kts 142°
2026-05-05 09:33 48.42761 13.87883 34838 ft 458 kts 142°
2026-05-05 09:33 48.37947 13.94167 34826 ft 459 kts 142°
2026-05-05 09:34 48.33119 14.00451 34826 ft 459 kts 142°
2026-05-05 09:34 48.28304 14.06701 34824 ft 459 kts 142°
2026-05-05 09:35 48.23475 14.12950 34825 ft 459 kts 142°
2026-05-05 09:35 48.16220 14.22308 34835 ft 459 kts 142°
2026-05-05 09:36 48.11362 14.28555 34830 ft 460 kts 142°
2026-05-05 09:36 48.06504 14.34785 34831 ft 460 kts 142°
2026-05-05 09:37 48.01653 14.40991 34833 ft 461 kts 142°
2026-05-05 09:37 47.96765 14.47227 34842 ft 462 kts 142°
2026-05-05 09:38 47.91897 14.53423 34839 ft 462 kts 142°
2026-05-05 09:38 47.86997 14.59642 34844 ft 463 kts 142°
2026-05-05 09:39 47.82088 14.65858 34851 ft 463 kts 142°
2026-05-05 09:39 47.77166 14.72074 34851 ft 463 kts 142°
2026-05-05 09:40 47.72274 14.78236 34860 ft 462 kts 142°
2026-05-05 09:40 47.67378 14.84387 34868 ft 462 kts 142°
2026-05-05 09:41 47.62453 14.90559 34877 ft 462 kts 142°
2026-05-05 09:41 47.57551 14.96687 34879 ft 462 kts 143°
2026-05-05 09:42 47.52647 15.02801 34889 ft 461 kts 143°
2026-05-05 09:42 47.47723 15.08925 34891 ft 461 kts 143°
2026-05-05 09:43 47.42835 15.14988 34901 ft 461 kts 143°
2026-05-05 09:43 47.37928 15.21061 34895 ft 462 kts 143°
2026-05-05 09:44 47.32975 15.27174 34896 ft 462 kts 143°
2026-05-05 09:44 47.28060 15.33225 34900 ft 462 kts 143°
2026-05-05 09:45 47.23134 15.39274 34902 ft 462 kts 143°
2026-05-05 09:45 47.18183 15.45339 34904 ft 463 kts 143°
2026-05-05 09:46 47.13239 15.51381 34911 ft 463 kts 143°
2026-05-05 09:46 47.08280 15.57426 34910 ft 464 kts 143°
2026-05-05 09:47 47.03337 15.63436 34905 ft 464 kts 143°
2026-05-05 09:47 46.98374 15.69455 34916 ft 464 kts 143°
2026-05-05 09:48 46.93401 15.75472 34914 ft 465 kts 143°
2026-05-05 09:48 46.88377 15.81535 34915 ft 466 kts 143°
2026-05-05 09:49 46.83384 15.87546 34920 ft 466 kts 143°
2026-05-05 09:49 46.78404 15.93525 34927 ft 467 kts 143°
2026-05-05 09:50 46.73383 15.99539 34934 ft 467 kts 143°
2026-05-05 09:50 46.68349 16.05555 34937 ft 468 kts 143°
2026-05-05 09:51 46.63307 16.11564 34945 ft 468 kts 143°
2026-05-05 09:51 46.58285 16.17534 34951 ft 467 kts 143°
2026-05-05 09:52 46.53230 16.23530 34957 ft 467 kts 143°
2026-05-05 09:52 46.48192 16.29490 34959 ft 467 kts 143°
2026-05-05 09:53 46.43148 16.35442 34964 ft 467 kts 143°
2026-05-05 09:53 46.38112 16.41372 34969 ft 467 kts 143°
2026-05-05 09:54 46.33062 16.47302 34976 ft 467 kts 143°
2026-05-05 09:54 46.28023 16.53205 34979 ft 467 kts 143°
2026-05-05 09:55 46.22975 16.59104 34990 ft 467 kts 143°
2026-05-05 09:55 46.17928 16.64987 34991 ft 467 kts 143°
2026-05-05 09:56 46.12874 16.70866 34990 ft 468 kts 143°
2026-05-05 09:56 46.07823 16.76726 34984 ft 468 kts 143°
2026-05-05 09:57 46.02728 16.82622 34993 ft 468 kts 143°
2026-05-05 09:57 45.97657 16.88477 35004 ft 468 kts 143°
2026-05-05 09:58 45.92585 16.94320 34993 ft 469 kts 143°
2026-05-05 09:58 45.87494 17.00170 34988 ft 469 kts 143°
2026-05-05 09:59 45.82379 17.06034 34989 ft 469 kts 143°
2026-05-05 09:59 45.77274 17.11874 34997 ft 469 kts 143°
2026-05-05 10:00 45.72265 17.17828 34996 ft 470 kts 140°
2026-05-05 10:00 45.67449 17.24150 34999 ft 470 kts 139°
2026-05-05 10:01 45.62668 17.30508 34998 ft 469 kts 139°
2026-05-05 10:01 45.57868 17.36818 35012 ft 469 kts 139°
2026-05-05 10:02 45.53058 17.43081 35002 ft 469 kts 140°
2026-05-05 10:02 45.48248 17.49316 35005 ft 469 kts 140°
2026-05-05 10:03 45.43414 17.55568 35006 ft 470 kts 140°
2026-05-05 10:03 45.38548 17.61846 35004 ft 471 kts 140°
2026-05-05 10:04 45.33701 17.68088 35008 ft 472 kts 140°
2026-05-05 10:04 45.28824 17.74352 35008 ft 472 kts 140°
2026-05-05 10:05 45.23950 17.80597 35009 ft 472 kts 140°
2026-05-05 10:05 45.19065 17.86843 35008 ft 473 kts 140°
2026-05-05 10:06 45.14189 17.93060 35014 ft 473 kts 140°
2026-05-05 10:06 45.09276 17.99309 35009 ft 473 kts 140°
2026-05-05 10:07 45.04390 18.05510 35015 ft 474 kts 140°
2026-05-05 10:07 44.99485 18.11720 35008 ft 474 kts 140°
2026-05-05 10:08 44.94581 18.17915 35012 ft 474 kts 140°
2026-05-05 10:08 44.89638 18.24143 35011 ft 475 kts 140°
2026-05-05 10:09 44.84742 18.30296 35021 ft 474 kts 140°
2026-05-05 10:09 44.79788 18.36510 35018 ft 475 kts 140°
2026-05-05 10:10 44.74867 18.42666 35014 ft 475 kts 140°
2026-05-05 10:10 44.69920 18.48839 35022 ft 475 kts 140°
2026-05-05 10:11 44.64980 18.54991 35019 ft 476 kts 140°
2026-05-05 10:11 44.60031 18.61137 35017 ft 476 kts 140°
2026-05-05 10:12 44.55069 18.67286 35019 ft 477 kts 140°
2026-05-05 10:12 44.50096 18.73434 35020 ft 477 kts 140°
2026-05-05 10:13 44.45126 18.79564 35025 ft 477 kts 140°
2026-05-05 10:13 44.40134 18.85706 35022 ft 477 kts 140°
2026-05-05 10:14 44.35163 18.91809 35020 ft 477 kts 140°
2026-05-05 10:14 44.30163 18.97933 35035 ft 477 kts 140°
2026-05-05 10:15 44.25188 19.04011 35029 ft 477 kts 140°
2026-05-05 10:15 44.20210 19.10081 35037 ft 477 kts 140°
2026-05-05 10:16 44.15212 19.16161 35046 ft 478 kts 140°
2026-05-05 10:16 44.10188 19.22220 35053 ft 479 kts 141°
2026-05-05 10:17 44.05085 19.28283 35040 ft 480 kts 141°
2026-05-05 10:17 44.00018 19.34291 35060 ft 481 kts 141°
2026-05-05 10:18 43.94938 19.40314 35045 ft 482 kts 141°
2026-05-05 10:18 43.89820 19.46372 35046 ft 482 kts 141°
2026-05-05 10:19 43.84748 19.52362 35053 ft 482 kts 141°
2026-05-05 10:19 43.79629 19.58394 35060 ft 481 kts 141°
2026-05-05 10:20 43.74540 19.64376 35053 ft 482 kts 141°
2026-05-05 10:20 43.69449 19.70348 35064 ft 482 kts 141°
2026-05-05 10:21 43.64422 19.76507 35065 ft 483 kts 137°
2026-05-05 10:21 43.59642 19.83001 35065 ft 483 kts 136°
2026-05-05 10:22 43.54891 19.89527 35066 ft 484 kts 136°
2026-05-05 10:22 43.50080 19.96044 35070 ft 485 kts 136°
2026-05-05 10:23 43.45243 20.02536 35070 ft 485 kts 136°
2026-05-05 10:23 43.40393 20.09019 35077 ft 486 kts 136°
2026-05-05 10:24 43.35560 20.15469 35079 ft 486 kts 136°
2026-05-05 10:24 43.30707 20.21933 35068 ft 487 kts 136°
2026-05-05 10:25 43.25852 20.28384 35076 ft 487 kts 136°
2026-05-05 10:25 43.20996 20.34823 35078 ft 487 kts 136°
2026-05-05 10:26 43.16925 20.40208 35076 ft 487 kts 136°
2026-05-05 10:26 43.11237 20.47716 35076 ft 487 kts 136°
2026-05-05 10:27 43.06356 20.54143 35088 ft 488 kts 136°
2026-05-05 10:27 43.01474 20.60558 35095 ft 488 kts 136°
2026-05-05 10:28 42.96575 20.66976 35093 ft 489 kts 136°
2026-05-05 10:28 42.92457 20.72360 35091 ft 490 kts 136°
2026-05-05 10:29 42.87538 20.78780 35099 ft 491 kts 136°
2026-05-05 10:29 42.82609 20.85200 35099 ft 492 kts 136°
2026-05-05 10:30 42.77640 20.91659 35102 ft 493 kts 136°
2026-05-05 10:30 42.72719 20.98039 35102 ft 493 kts 136°
2026-05-05 10:31 42.67732 21.04489 35104 ft 493 kts 136°
2026-05-05 10:31 42.62772 21.10891 35108 ft 493 kts 136°
2026-05-05 10:32 42.57811 21.17278 35103 ft 494 kts 136°
2026-05-05 10:32 42.52800 21.23716 35105 ft 494 kts 136°
2026-05-05 10:33 42.47822 21.30096 35101 ft 495 kts 136°
2026-05-05 10:33 42.42830 21.36479 35099 ft 495 kts 136°
2026-05-05 10:34 42.37795 21.42904 35099 ft 495 kts 136°
2026-05-05 10:34 42.32779 21.49288 35098 ft 496 kts 136°
2026-05-05 10:35 42.27769 21.55653 35095 ft 496 kts 136°
2026-05-05 10:35 42.22744 21.62023 35092 ft 496 kts 136°
2026-05-05 10:36 42.17799 21.68497 35093 ft 496 kts 135°
2026-05-05 10:36 42.12917 21.75023 35103 ft 496 kts 135°
2026-05-05 10:37 42.08005 21.81561 35101 ft 496 kts 135°
2026-05-05 10:37 42.03068 21.88086 35100 ft 497 kts 135°
2026-05-05 10:38 41.98146 21.94565 35090 ft 497 kts 135°
2026-05-05 10:38 41.93207 22.01049 35094 ft 497 kts 135°
2026-05-05 10:39 41.88269 22.07520 35089 ft 497 kts 135°
2026-05-05 10:39 41.83331 22.13976 35086 ft 497 kts 135°
2026-05-05 10:40 41.78449 22.20345 35091 ft 497 kts 135°
2026-05-05 10:40 41.73513 22.26771 35088 ft 497 kts 135°
2026-05-05 10:41 41.68535 22.33235 35085 ft 497 kts 135°
2026-05-05 10:41 41.63569 22.39670 35092 ft 497 kts 135°
2026-05-05 10:42 41.56135 22.49277 35087 ft 498 kts 135°
2026-05-05 10:43 41.51157 22.55691 35087 ft 498 kts 135°
2026-05-05 10:43 41.46163 22.62112 35069 ft 498 kts 135°
2026-05-05 10:44 41.41161 22.68530 35076 ft 498 kts 135°
2026-05-05 10:44 41.36164 22.74928 35078 ft 498 kts 135°
2026-05-05 10:45 41.31099 22.81173 35054 ft 498 kts 140°
2026-05-05 10:45 41.25721 22.86908 35077 ft 497 kts 142°
2026-05-05 10:46 41.20250 22.92571 35061 ft 498 kts 141°
2026-05-05 10:46 41.14801 22.98259 35054 ft 498 kts 141°
2026-05-05 10:47 41.09407 23.03933 35057 ft 498 kts 141°
2026-05-05 10:47 41.03984 23.09643 35064 ft 498 kts 141°
2026-05-05 10:48 40.98537 23.15366 35049 ft 498 kts 141°
2026-05-05 10:48 40.93121 23.21039 35054 ft 499 kts 141°
2026-05-05 10:49 40.87667 23.26739 35058 ft 499 kts 141°
2026-05-05 10:49 40.82215 23.32425 35053 ft 500 kts 141°
2026-05-05 10:50 40.76756 23.38109 35044 ft 500 kts 141°
2026-05-05 10:50 40.71314 23.43757 35047 ft 499 kts 141°
2026-05-05 10:51 40.65832 23.49436 35057 ft 499 kts 141°
2026-05-05 10:51 40.60367 23.55086 35061 ft 499 kts 141°
2026-05-05 10:52 40.54916 23.60710 35066 ft 499 kts 141°
2026-05-05 10:52 40.49451 23.66337 35057 ft 499 kts 141°
2026-05-05 10:53 40.43973 23.71964 35067 ft 499 kts 141°
2026-05-05 10:53 40.38496 23.77580 35066 ft 499 kts 141°
2026-05-05 10:54 40.33024 23.83178 35068 ft 499 kts 141°
2026-05-05 10:54 40.27559 23.88756 35072 ft 499 kts 141°
2026-05-05 10:55 40.22069 23.94349 35076 ft 499 kts 141°
2026-05-05 10:55 40.16592 23.99916 35076 ft 499 kts 142°
2026-05-05 10:56 40.11110 24.05477 35071 ft 499 kts 142°
2026-05-05 10:56 40.05615 24.11040 35073 ft 500 kts 142°
2026-05-05 10:57 40.00102 24.16609 35076 ft 500 kts 142°
2026-05-05 10:57 39.94611 24.22144 35076 ft 500 kts 142°
2026-05-05 10:58 39.89102 24.27686 35077 ft 500 kts 142°
2026-05-05 10:58 39.83591 24.33218 35077 ft 500 kts 142°
2026-05-05 10:59 39.78064 24.38755 35078 ft 500 kts 142°
2026-05-05 10:59 39.72542 24.44276 35077 ft 500 kts 142°
2026-05-05 11:00 39.67007 24.49798 35077 ft 500 kts 142°
2026-05-05 11:00 39.61484 24.55297 35079 ft 500 kts 142°
2026-05-05 11:01 39.55952 24.60795 35075 ft 500 kts 142°
2026-05-05 11:01 39.50444 24.66258 35087 ft 500 kts 142°
2026-05-05 11:02 39.44950 24.71779 35089 ft 500 kts 141°
2026-05-05 11:02 39.39478 24.77347 35086 ft 501 kts 141°
2026-05-05 11:03 39.33977 24.82923 35084 ft 501 kts 141°
2026-05-05 11:03 39.28516 24.88433 35085 ft 501 kts 142°
2026-05-05 11:04 39.23016 24.93971 35087 ft 501 kts 142°
2026-05-05 11:04 39.17518 24.99491 35086 ft 501 kts 142°
2026-05-05 11:05 39.12085 25.04925 35085 ft 501 kts 142°
2026-05-05 11:05 39.06580 25.10421 35085 ft 501 kts 142°
2026-05-05 11:06 39.01092 25.15894 35088 ft 501 kts 142°
2026-05-05 11:06 38.95567 25.21392 35086 ft 501 kts 142°
2026-05-05 11:07 38.90054 25.26866 35089 ft 501 kts 142°
2026-05-05 11:07 38.84533 25.32339 35090 ft 501 kts 142°
2026-05-05 11:08 38.79037 25.37775 35086 ft 501 kts 142°
2026-05-05 11:08 38.73499 25.43242 35087 ft 501 kts 142°
2026-05-05 11:09 38.67991 25.48668 35092 ft 501 kts 142°
2026-05-05 11:09 38.62477 25.54090 34980 ft 502 kts 142°
2026-05-05 11:09 38.59679 25.56838 34317 ft 508 kts 142°
2026-05-05 11:10 38.56852 25.59610 33560 ft 507 kts 142°
2026-05-05 11:10 38.54086 25.62322 32782 ft 507 kts 142°
2026-05-05 11:10 38.51284 25.65065 31997 ft 507 kts 142°
2026-05-05 11:10 38.48479 25.67809 31197 ft 507 kts 142°
2026-05-05 11:11 38.45685 25.70538 30387 ft 508 kts 142°
2026-05-05 11:11 38.42854 25.73310 29413 ft 509 kts 142°
2026-05-05 11:11 38.40075 25.76053 28433 ft 509 kts 142°
2026-05-05 11:11 38.37287 25.78807 27442 ft 509 kts 142°
2026-05-05 11:12 38.34483 25.81561 26913 ft 498 kts 143°
2026-05-05 11:12 38.31769 25.84206 26252 ft 492 kts 143°
2026-05-05 11:12 38.29039 25.86862 25577 ft 486 kts 143°
2026-05-05 11:12 38.26361 25.89468 24918 ft 481 kts 143°
2026-05-05 11:13 38.23772 25.92073 24308 ft 475 kts 141°
2026-05-05 11:13 38.21266 25.94800 23710 ft 469 kts 140°
2026-05-05 11:13 38.18844 25.97525 22967 ft 465 kts 139°
2026-05-05 11:13 38.16425 26.00258 22245 ft 460 kts 139°
2026-05-05 11:14 38.14847 26.02030 21800 ft 457 kts 139°
2026-05-05 11:14 38.12454 26.04694 21125 ft 453 kts 139°
2026-05-05 11:14 38.09301 26.08176 20253 ft 447 kts 139°
2026-05-05 11:14 38.07725 26.09911 19813 ft 445 kts 139°
2026-05-05 11:15 38.05402 26.12466 19169 ft 441 kts 139°
2026-05-05 11:15 38.03090 26.15007 18485 ft 440 kts 139°
2026-05-05 11:15 38.00782 26.17543 17753 ft 438 kts 139°
2026-05-05 11:15 37.98494 26.20057 17072 ft 434 kts 138°
2026-05-05 11:16 37.96218 26.22556 16417 ft 429 kts 138°
2026-05-05 11:16 37.93969 26.25024 15784 ft 425 kts 138°
2026-05-05 11:16 37.91741 26.27468 15154 ft 420 kts 137°
2026-05-05 11:16 37.89562 26.29855 14539 ft 416 kts 137°
2026-05-05 11:17 37.87378 26.32244 13901 ft 413 kts 137°
2026-05-05 11:17 37.85205 26.34622 13261 ft 408 kts 137°
2026-05-05 11:17 37.83081 26.36949 12720 ft 401 kts 137°
2026-05-05 11:17 37.80993 26.39235 12330 ft 391 kts 137°
2026-05-05 11:18 37.78963 26.41460 11732 ft 388 kts 136°
2026-05-05 11:18 37.76910 26.43709 11145 ft 386 kts 136°
2026-05-05 11:18 37.74916 26.45890 10959 ft 372 kts 136°
2026-05-05 11:18 37.73008 26.47973 10753 ft 360 kts 136°
2026-05-05 11:19 37.71149 26.50000 10629 ft 347 kts 136°
2026-05-05 11:19 37.69536 26.52177 10510 ft 328 kts 117°
2026-05-05 11:19 37.68678 26.54707 10409 ft 305 kts 99°
2026-05-05 11:19 37.68464 26.57270 10196 ft 284 kts 87°
2026-05-05 11:20 37.67943 26.59667 9950 ft 287 kts 118°
2026-05-05 11:20 37.66463 26.61287 9630 ft 288 kts 155°
2026-05-05 11:20 37.64515 26.61793 9379 ft 282 kts 172°
2026-05-05 11:20 37.62594 26.62210 9070 ft 282 kts 165°
2026-05-05 11:21 37.60701 26.62917 8608 ft 285 kts 158°
2026-05-05 11:21 37.58860 26.63892 8148 ft 284 kts 151°
2026-05-05 11:21 37.57120 26.65059 7698 ft 282 kts 146°
2026-05-05 11:21 37.55468 26.66388 7249 ft 281 kts 141°
2026-05-05 11:22 37.53910 26.67865 6802 ft 279 kts 136°
2026-05-05 11:22 37.52471 26.69471 6370 ft 277 kts 131°
2026-05-05 11:22 37.51129 26.71198 5916 ft 276 kts 127°
2026-05-05 11:22 37.49908 26.73052 5463 ft 275 kts 121°
2026-05-05 11:23 37.48834 26.75036 5022 ft 273 kts 116°
2026-05-05 11:23 37.47902 26.77126 4563 ft 271 kts 112°
2026-05-05 11:23 37.47109 26.79289 4119 ft 273 kts 108°
2026-05-05 11:23 37.46453 26.81521 3761 ft 272 kts 104°
2026-05-05 11:24 37.45937 26.83786 3505 ft 268 kts 99°
2026-05-05 11:24 37.45886 26.86076 3227 ft 258 kts 73°
2026-05-05 11:24 37.46670 26.88018 3054 ft 245 kts 45°
2026-05-05 11:24 37.47982 26.89270 3003 ft 229 kts 23°
2026-05-05 11:25 37.49459 26.89790 2995 ft 214 kts
2026-05-05 11:25 37.50898 26.89898 2955 ft 202 kts
2026-05-05 11:25 37.52277 26.89953 2826 ft 196 kts
2026-05-05 11:25 37.53614 26.90004 2701 ft 190 kts
2026-05-05 11:26 37.54926 26.90056 2574 ft 186 kts
2026-05-05 11:26 37.56201 26.90112 2474 ft 184 kts
2026-05-05 11:26 37.57484 26.90171 2350 ft 183 kts
2026-05-05 11:26 37.58761 26.90225 2224 ft 182 kts 360°
2026-05-05 11:27 37.60013 26.90267 2065 ft 178 kts
2026-05-05 11:27 37.61215 26.90447 1826 ft 174 kts 15°
2026-05-05 11:27 37.62310 26.90888 1654 ft 157 kts 358°
2026-05-05 11:27 37.63286 26.90476 1447 ft 141 kts 326°
2026-05-05 11:28 37.64059 26.89797 1421 ft 128 kts 324°
2026-05-05 11:28 37.64776 26.89124 1283 ft 131 kts 324°
2026-05-05 11:28 37.65513 26.88457 1186 ft 131 kts 325°
2026-05-05 11:28 37.66271 26.87792 1071 ft 133 kts 330°
2026-05-05 11:29 37.67115 26.87323 942 ft 135 kts 342°
2026-05-05 11:29 37.68021 26.87194 854 ft 126 kts
2026-05-05 11:29 37.68779 26.87694 618 ft 129 kts 47°
2026-05-05 11:29 37.69038 26.88826 295 ft 144 kts 84°
2026-05-05 11:30 37.68982 26.90098 66 ft 146 kts 90°
2026-05-05 11:30 37.68909 26.91297 23 ft 114 kts 94°
2026-05-05 11:30 37.68868 26.91986 20 ft 55 kts 94°
2026-05-05 11:30 37.68844 26.92298 20 ft 28 kts 99°
2026-05-05 11:31 37.68840 26.92428 21 ft 9 kts 22°
2026-05-05 11:31 37.68860 26.92410 19 ft 4 kts 271°
2026-05-05 11:31 37.68855 26.92328 23 ft 16 kts 269°
2026-05-05 11:31 37.68861 26.92152 21 ft 22 kts 273°
2026-05-05 11:32 37.68871 26.91957 20 ft 22 kts 275°
2026-05-05 11:32 37.68883 26.91769 21 ft 21 kts 276°
2026-05-05 11:32 37.68969 26.91656 22 ft 17 kts 309°
2026-05-05 11:32 37.69001 26.91572 23 ft 9 kts 297°
2026-05-05 11:33 37.69027 26.91489 23 ft 13 kts 278°
2026-05-05 11:33 37.69039 26.91358 25 ft 16 kts 277°
2026-05-05 11:33 37.69050 26.91247 23 ft 3 kts 255°
2026-05-05 11:33 37.69038 26.91233 23 ft 2 kts 221°
2026-05-05 11:34 37.69030 26.91224 26 ft 0 kts 221°